Thedford, NE

5:55 AM CDT on September 29, 2016 (GMT -0500)
Thedford

Weather History for KTIF - November, 2013

Change the Weather History Date:

Friday, November 8, 2013

  Actual Average (KLBF) Record (KLBF)
Temperature  
Mean Temperature 49 °F 39 °F  
Max Temperature 65 °F 54 °F 83 °F (2006)
Min Temperature 32 °F 24 °F 10 °F (1936)
Degree Days  
Heating Degree Days 16 26  
Month to date heating degree days 192  
Since 1 July heating degree days 861  
Cooling Degree Days 0 0  
Month to date cooling degree days 0  
Year to date cooling degree days 768  
Moisture  
Dew Point 31 °F    
Average Humidity 56    
Maximum Humidity 85    
Minimum Humidity 22    
Precipitation  
Precipitation 0.00 in 0.02 in 0.82 in (1970)
Month to date precipitation 0.22  
Year to date precipitation 19.40  
Snow  
Snow 0.00 in 0.10 in 4.00 in (1897)
Month to date snowfall 0.9  
Since 1 July snowfall 3.2  
Since 1 September snowfall 3.2  
Snow Depth -    
Sea Level Pressure  
Sea Level Pressure 29.84 in    
Wind  
Wind Speed 11 mph (WSW)    
Max Wind Speed 26 mph    
Max Gust Speed 37 mph    
Visibility 10 miles    
Events      
T = Trace of Precipitation, MM = Missing Value Source: NWS Daily Summary

Daily Weather History Graph

Daily Weather History Graph

Search for Another Location

Airport or City:

Trip Planner

Search our weather history database for the weather conditions in past years. The results will help you decide how hot, cold, wet, or windy it might be!

Date:

Astronomy

Nov. 08, 2013 Rise Set
Actual Time 7:23 AM CST 5:27 PM CST
Civil Twilight 6:54 AM CST 5:57 PM CST
Nautical Twilight 6:20 AM CST 6:30 PM CST
Astronomical Twilight 5:48 AM CST 7:03 PM CST
Moon 12:20 PM CST (11/8) 10:51 PM CST (11/8)
Length of Visible Light 11h 02m
Length of Day
10h 03m
Waxing Crescent, 33% of the Moon is Illuminated
Nov 8
Waxing Crescent
Nov 9
First Quarter
Nov 17
Full
Nov 25
Last Quarter
Dec 2
New

Hourly Weather History & Observations

Time (CST) Temp. Windchill Dew Point Humidity Pressure Visibility Wind Dir Wind Speed Gust Speed Precip Events Conditions
12:15 AM 45.3 °F 39.3 °F 32.9 °F 62% 30.04 in 10.0 mi South 12.7 mph 19.6 mph N/A   Overcast
12:35 AM 45.5 °F 39.6 °F 33.1 °F 62% 30.03 in 10.0 mi South 12.7 mph 16.1 mph N/A   Mostly Cloudy
12:55 AM 45.5 °F 40.3 °F 33.3 °F 62% 30.02 in 10.0 mi South 10.4 mph - N/A   Overcast
1:15 AM 45.7 °F 39.8 °F 32.9 °F 61% 30.01 in 10.0 mi South 12.7 mph 17.3 mph N/A   Overcast
1:35 AM 46.0 °F 40.2 °F 32.9 °F 60% 29.99 in 10.0 mi South 12.7 mph 18.4 mph N/A   Overcast
1:55 AM 45.9 °F 39.7 °F 32.5 °F 60% 29.97 in 10.0 mi South 13.8 mph 19.6 mph N/A   Scattered Clouds
2:15 AM 44.6 °F 37.8 °F 32.0 °F 61% 29.96 in 10.0 mi South 15.0 mph - N/A   Clear
2:35 AM 44.4 °F 37.5 °F 32.0 °F 62% 29.95 in 10.0 mi South 15.0 mph 21.9 mph N/A   Clear
2:55 AM 43.2 °F 37.0 °F 32.0 °F 65% 29.95 in 10.0 mi South 11.5 mph 16.1 mph N/A   Clear
3:15 AM 42.4 °F 36.5 °F 32.0 °F 67% 29.93 in 10.0 mi South 10.4 mph - N/A   Clear
3:35 AM 42.3 °F 35.5 °F 32.0 °F 67% 29.90 in 10.0 mi South 12.7 mph - N/A   Clear
3:55 AM 41.9 °F 36.3 °F 32.0 °F 68% 29.89 in 10.0 mi South 9.2 mph - N/A   Clear
4:15 AM 41.2 °F 36.0 °F 32.0 °F 70% 29.88 in 10.0 mi South 8.1 mph - N/A   Clear
4:35 AM 40.8 °F 37.8 °F 32.0 °F 71% 29.87 in 10.0 mi South 4.6 mph - N/A   Clear
4:55 AM 40.5 °F 36.5 °F 32.0 °F 72% 29.85 in 10.0 mi South 5.8 mph - N/A   Clear
5:15 AM 40.3 °F 35.5 °F 31.8 °F 72% 29.84 in 10.0 mi SSW 6.9 mph - N/A   Scattered Clouds
5:35 AM 40.3 °F 34.9 °F 31.8 °F 72% 29.83 in 10.0 mi SSW 8.1 mph - N/A   Scattered Clouds
5:55 AM 40.3 °F 34.9 °F 31.6 °F 71% 29.81 in 10.0 mi SSW 8.1 mph - N/A   Clear
6:15 AM 39.6 °F 34.7 °F 31.5 °F 73% 29.81 in 10.0 mi SSW 6.9 mph - N/A   Clear
6:35 AM 38.8 °F 34.6 °F 31.1 °F 74% 29.79 in 10.0 mi South 5.8 mph - N/A   Clear
6:55 AM 38.3 °F 32.5 °F 31.1 °F 75% 29.78 in 10.0 mi SSW 8.1 mph - N/A   Clear
7:15 AM 38.5 °F - 31.1 °F 75% 29.78 in 10.0 mi Calm Calm - N/A   Clear
7:35 AM 39.2 °F 34.2 °F 31.5 °F 74% 29.78 in 10.0 mi SW 6.9 mph - N/A   Clear
7:55 AM 40.1 °F 33.6 °F 31.8 °F 72% 29.79 in 10.0 mi SW 10.4 mph - N/A   Scattered Clouds
8:15 AM 40.5 °F 34.6 °F 31.8 °F 71% 29.77 in 10.0 mi SSW 9.2 mph - N/A   Mostly Cloudy
8:35 AM 42.1 °F 37.1 °F 31.8 °F 67% 29.77 in 10.0 mi SW 8.1 mph - N/A   Mostly Cloudy
8:55 AM 43.0 °F 36.8 °F 31.6 °F 64% 29.75 in 10.0 mi SSW 11.5 mph - N/A   Mostly Cloudy
9:15 AM 43.7 °F 42.1 °F 31.5 °F 62% 29.74 in 10.0 mi WSW 3.5 mph - N/A   Scattered Clouds
9:35 AM 44.1 °F 38.1 °F 31.5 °F 61% 29.75 in 10.0 mi SW 11.5 mph - N/A   Scattered Clouds
9:55 AM 44.2 °F 38.4 °F 31.6 °F 61% 29.73 in 10.0 mi SSW 11.5 mph - N/A   Scattered Clouds
10:15 AM 45.7 °F 39.8 °F 31.6 °F 58% 29.73 in 10.0 mi SW 12.7 mph - N/A   Scattered Clouds
10:35 AM 46.8 °F - 31.8 °F 56% 29.73 in 10.0 mi WSW 10.4 mph 18.4 mph N/A   Clear
10:55 AM 50.7 °F - 32.0 °F 49% 29.72 in 10.0 mi West 11.5 mph 18.4 mph N/A   Clear
11:15 AM 59.5 °F - 28.6 °F 31% 29.72 in 10.0 mi West 20.7 mph 31.1 mph N/A   Clear
11:35 AM 62.4 °F - 28.2 °F 27% 29.73 in 10.0 mi West 20.7 mph 29.9 mph N/A   Clear
11:55 AM 65.8 °F - 26.6 °F 23% 29.72 in 10.0 mi West 26.5 mph 34.5 mph N/A   Clear
12:15 PM 65.8 °F - 26.1 °F 22% 29.72 in 10.0 mi West 25.3 mph 36.8 mph N/A   Clear
12:35 PM 65.5 °F - 26.2 °F 23% 29.72 in 10.0 mi West 23.0 mph 32.2 mph N/A   Clear
12:55 PM 65.7 °F - 26.2 °F 23% 29.71 in 10.0 mi West 23.0 mph 34.5 mph N/A   Clear
1:15 PM 65.7 °F - 26.6 °F 23% 29.71 in 10.0 mi WNW 24.2 mph 33.4 mph N/A   Clear
1:35 PM 65.5 °F - 28.9 °F 25% 29.72 in 10.0 mi NW 24.2 mph 34.5 mph N/A   Clear
1:55 PM 64.8 °F - 29.7 °F 27% 29.73 in 10.0 mi WNW 24.2 mph 32.2 mph N/A   Clear
2:15 PM 64.4 °F - 30.0 °F 28% 29.74 in 10.0 mi NW 21.9 mph 28.8 mph N/A   Clear
2:35 PM 64.8 °F - 30.4 °F 28% 29.74 in 10.0 mi NW 21.9 mph 28.8 mph N/A   Clear
2:55 PM 63.9 °F - 30.7 °F 29% 29.74 in 10.0 mi WNW 23.0 mph 31.1 mph N/A   Clear
3:15 PM 63.7 °F - 31.3 °F 30% 29.75 in 10.0 mi WNW 20.7 mph 32.2 mph N/A   Clear
3:35 PM 62.8 °F - 31.8 °F 31% 29.76 in 10.0 mi WNW 18.4 mph 29.9 mph N/A   Clear
3:55 PM 61.9 °F - 32.5 °F 33% 29.77 in 10.0 mi NW 16.1 mph 26.5 mph N/A   Clear
4:15 PM 60.6 °F - 33.8 °F 37% 29.78 in 10.0 mi NNW 16.1 mph - N/A   Clear
4:35 PM 58.8 °F - 33.3 °F 38% 29.79 in 10.0 mi NW 15.0 mph 21.9 mph N/A   Clear
4:55 PM 57.7 °F - 33.3 °F 40% 29.80 in 10.0 mi NW 10.4 mph - N/A   Clear
5:15 PM 55.2 °F - 33.8 °F 44% 29.81 in 10.0 mi NW 8.1 mph - N/A   Clear
5:35 PM 53.4 °F - 32.7 °F 45% 29.83 in 10.0 mi WNW 4.6 mph - N/A   Clear
5:55 PM 50.0 °F - 32.4 °F 51% 29.84 in 10.0 mi West 8.1 mph - N/A   Clear
6:15 PM 49.5 °F - 30.0 °F 47% 29.85 in 10.0 mi West 5.8 mph - N/A   Clear
6:35 PM 46.8 °F - 29.3 °F 51% 29.87 in 10.0 mi Calm Calm - N/A   Clear
6:55 PM 45.7 °F 42.7 °F 29.5 °F 53% 29.87 in 10.0 mi West 5.8 mph - N/A   Clear
7:15 PM 45.0 °F 41.8 °F 30.0 °F 56% 29.89 in 10.0 mi West 5.8 mph - N/A   Clear
7:35 PM 43.0 °F 39.5 °F 29.7 °F 59% 29.89 in 10.0 mi West 5.8 mph - N/A   Clear
7:55 PM 41.5 °F 37.8 °F 29.8 °F 63% 29.90 in 10.0 mi WNW 5.8 mph - N/A   Clear
8:15 PM 41.0 °F 37.1 °F 29.8 °F 64% 29.90 in 10.0 mi West 5.8 mph - N/A   Clear
8:35 PM 41.2 °F - 29.3 °F 63% 29.91 in 10.0 mi Calm Calm - N/A   Clear
8:55 PM 37.4 °F 34.9 °F 28.6 °F 70% 29.92 in 10.0 mi West 3.5 mph - N/A   Clear
9:15 PM 38.8 °F 36.5 °F 29.1 °F 68% 29.93 in 10.0 mi WNW 3.5 mph - N/A   Clear
9:35 PM 34.2 °F 30.0 °F 28.9 °F 81% 29.95 in 10.0 mi WNW 4.6 mph - N/A   Clear
9:55 PM 36.5 °F 29.2 °F 29.5 °F 76% 29.95 in 10.0 mi West 10.4 mph - N/A   Clear
10:15 PM 37.4 °F 32.8 °F 29.3 °F 73% 29.96 in 10.0 mi West 5.8 mph - N/A   Clear
10:35 PM 36.7 °F 34.1 °F 29.1 °F 74% 29.96 in 10.0 mi West 3.5 mph - N/A   Clear
10:55 PM 34.7 °F - 28.4 °F 78% 29.97 in 10.0 mi Calm Calm - N/A   Clear
11:15 PM 33.6 °F - 28.0 °F 80% 29.98 in 10.0 mi Calm Calm - N/A   Clear
11:35 PM 34.3 °F 29.2 °F 28.8 °F 80% 29.98 in 10.0 mi West 5.8 mph - N/A   Clear
11:55 PM 32.2 °F 28.9 °F 28.0 °F 85% 29.99 in 10.0 mi NW 3.5 mph - N/A   Clear